Погода во Франсистауне

Ботсвана     21°09′59″S   27°30′41″E
темп.,
°C
ветер,
м/с
пор.,
м/с
влажн.,
%
обл.,
%
осадки,
мм/ч
давл.,
гПа
погр.,
м
20 апреля, вт
вт2023:00+15всв45480 0.0 102052
02:00+13в34530 0.0 102052
05:00+12вюв46610 0.0 102184
08:00+15вюв612610 0.0 1024489
11:00+22в910360 0.0 10221664
14:00+24в78300 0.0 10192171
17:00+23в77310 0.0 10192055
20:00+18вюв613450 0.0 1022337
21 апреля, ср
ср2123:00+16вюв714540 0.0 1022362
02:00+14в412760 0.0 1022288
05:00+12в310860 0.0 1023225
08:00+15в611720 0.0 1024457
11:00+22в77400 0.0 10221494
14:00+25вюв66280 0.0 10182179
17:00+24вюв66300 0.0 10172041
20:00+18юв511450 0.0 1020207
22 апреля, чт
чт2223:00+16в411540 0.0 1021196
02:00+14всв37620 0.0 1020108
05:00+13в35680 0.0 102163
08:00+16в46580 0.0 1023250
11:00+24в55290 0.0 10201320
14:00+27вюв43200 0.0 10162370
17:00+26вюв44204 0.0 10151418
20:00+19вюв411386 0.0 1018175
23 апреля, пт
пт2323:00+17в47485 0.0 1019123
02:00+15св35579 0.0 101965
05:00+14всв33645 0.0 101823
08:00+17в23541 0.0 1020201
11:00+25в44310 0.0 10171330
14:00+28юв32200 0.0 10132651
17:00+27юв43200 0.0 10131808
20:00+20вюв47310 0.0 101590
24 апреля, сб
сб2423:00+18всв34400 0.0 101645
02:00+16св33460 0.0 101622
05:00+15всв33500 0.0 101618
08:00+19ссв24420 0.0 1017163
11:00+27вюв12210 0.0 10161836
14:00+29ю22160 0.0 10122913
17:00+28ю22170 0.0 1012537
20:00+22ююв33230 0.0 101422